TimePDT,TemperatureF,Dew PointF,Humidity,Sea Level PressureIn,VisibilityMPH,Wind Direction,Wind SpeedMPH,Gust SpeedMPH,PrecipitationIn,Events,Conditions,WindDirDegrees,DateUTC
12:15 AM,55.4,51.8,88,30.05,10.0,Calm,Calm,-,N/A,,Clear,0,2013-08-12 07:15:00
12:35 AM,55.4,51.8,88,30.05,10.0,Calm,Calm,-,N/A,,Clear,0,2013-08-12 07:35:00
12:55 AM,55.4,51.8,88,30.05,10.0,Calm,Calm,-,N/A,,Clear,0,2013-08-12 07:55:00
1:15 AM,53.6,51.8,94,30.05,10.0,Calm,Calm,-,N/A,,Scattered Clouds,0,2013-08-12 08:15:00
1:35 AM,55.4,53.6,94,30.05,10.0,Calm,Calm,-,N/A,,Overcast,0,2013-08-12 08:35:00
1:55 AM,55.4,53.6,94,30.04,10.0,Calm,Calm,-,N/A,,Overcast,0,2013-08-12 08:55:00
2:15 AM,55.4,53.6,94,30.04,10.0,Calm,Calm,-,N/A,,Overcast,0,2013-08-12 09:15:00
2:35 AM,55.4,53.6,94,30.04,10.0,Calm,Calm,-,N/A,,Overcast,0,2013-08-12 09:35:00
2:55 AM,55.4,53.6,94,30.04,10.0,Calm,Calm,-,N/A,,Overcast,0,2013-08-12 09:55:00
3:15 AM,55.4,53.6,94,30.04,10.0,Calm,Calm,-,N/A,,Overcast,0,2013-08-12 10:15:00
3:35 AM,55.4,53.6,94,30.05,10.0,Calm,Calm,-,N/A,,Overcast,0,2013-08-12 10:35:00
3:55 AM,57.2,53.6,88,30.05,10.0,Calm,Calm,-,N/A,,Overcast,0,2013-08-12 10:55:00
4:15 AM,57.2,53.6,88,30.06,10.0,Calm,Calm,-,N/A,,Overcast,0,2013-08-12 11:15:00
4:35 AM,57.2,51.8,82,30.06,10.0,Calm,Calm,-,N/A,,Overcast,0,2013-08-12 11:35:00
4:55 AM,57.2,53.6,88,30.06,10.0,Calm,Calm,-,N/A,,Overcast,0,2013-08-12 11:55:00
5:15 AM,57.2,51.8,82,30.07,10.0,Calm,Calm,-,N/A,,Overcast,0,2013-08-12 12:15:00
5:35 AM,57.2,53.6,88,30.07,10.0,Calm,Calm,-,N/A,,Overcast,0,2013-08-12 12:35:00
5:55 AM,57.2,51.8,82,30.07,10.0,Calm,Calm,-,N/A,,Overcast,0,2013-08-12 12:55:00
6:15 AM,57.2,53.6,88,30.08,10.0,Calm,Calm,-,N/A,,Overcast,0,2013-08-12 13:15:00
6:35 AM,57.2,51.8,82,30.08,10.0,Calm,Calm,-,N/A,,Overcast,0,2013-08-12 13:35:00
6:55 AM,57.2,53.6,88,30.08,10.0,Calm,Calm,-,N/A,,Overcast,0,2013-08-12 13:55:00
7:15 AM,57.2,53.6,88,30.08,10.0,Calm,Calm,-,N/A,,Mostly Cloudy,0,2013-08-12 14:15:00
7:35 AM,57.2,53.6,88,30.08,10.0,Calm,Calm,-,N/A,,Overcast,0,2013-08-12 14:35:00
7:55 AM,57.2,53.6,88,30.09,10.0,Calm,Calm,-,N/A,,Overcast,0,2013-08-12 14:55:00
8:15 AM,57.2,53.6,88,30.09,10.0,Calm,Calm,-,N/A,,Overcast,0,2013-08-12 15:15:00
8:35 AM,59.0,53.6,82,30.09,10.0,Calm,Calm,-,N/A,,Overcast,0,2013-08-12 15:35:00
8:55 AM,60.8,53.6,77,30.09,10.0,Calm,Calm,-,N/A,,Overcast,0,2013-08-12 15:55:00
9:15 AM,60.8,53.6,77,30.10,10.0,Calm,Calm,-,N/A,,Overcast,0,2013-08-12 16:15:00
9:35 AM,60.8,53.6,77,30.10,10.0,Calm,Calm,-,N/A,,Overcast,0,2013-08-12 16:35:00
9:55 AM,62.6,53.6,72,30.10,10.0,Calm,Calm,-,N/A,,Overcast,0,2013-08-12 16:55:00
10:15 AM,64.4,55.4,73,30.09,10.0,Calm,Calm,-,N/A,,Overcast,0,2013-08-12 17:15:00
10:35 AM,64.4,55.4,73,30.09,10.0,Calm,Calm,-,N/A,,Overcast,0,2013-08-12 17:35:00
10:55 AM,66.2,55.4,68,30.09,10.0,Calm,Calm,-,N/A,,Mostly Cloudy,0,2013-08-12 17:55:00
11:15 AM,68.0,55.4,64,30.09,10.0,Calm,Calm,-,N/A,,Scattered Clouds,0,2013-08-12 18:15:00
11:35 AM,68.0,55.4,64,30.08,10.0,Calm,Calm,-,N/A,,Clear,0,2013-08-12 18:35:00
11:55 AM,69.8,55.4,60,30.08,10.0,Calm,Calm,-,N/A,,Clear,0,2013-08-12 18:55:00
12:15 PM,71.6,55.4,57,30.08,10.0,Calm,Calm,-,N/A,,Clear,0,2013-08-12 19:15:00
12:35 PM,71.6,55.4,57,30.07,10.0,Calm,Calm,-,N/A,,Clear,0,2013-08-12 19:35:00
12:55 PM,73.4,55.4,53,30.07,10.0,South,5.8,-,N/A,,Clear,170,2013-08-12 19:55:00
1:15 PM,73.4,55.4,53,30.07,10.0,Calm,Calm,-,N/A,,Clear,0,2013-08-12 20:15:00
1:35 PM,73.4,55.4,53,30.07,10.0,SSW,4.6,-,N/A,,Mostly Cloudy,200,2013-08-12 20:35:00
1:55 PM,75.2,55.4,50,30.06,10.0,Calm,Calm,-,N/A,,Scattered Clouds,0,2013-08-12 20:55:00
2:15 PM,73.4,55.4,53,30.06,10.0,Calm,Calm,-,N/A,,Scattered Clouds,0,2013-08-12 21:15:00
2:35 PM,73.4,57.2,57,30.06,10.0,NNW,6.9,-,N/A,,Partly Cloudy,340,2013-08-12 21:35:00
2:55 PM,73.4,57.2,57,30.06,10.0,WNW,9.2,-,N/A,,Partly Cloudy,290,2013-08-12 21:55:00
3:15 PM,75.2,57.2,53,30.05,10.0,West,4.6,-,N/A,,Partly Cloudy,260,2013-08-12 22:15:00
3:35 PM,75.2,57.2,53,30.04,10.0,WNW,9.2,-,N/A,,Partly Cloudy,300,2013-08-12 22:35:00
3:55 PM,75.2,57.2,53,30.04,10.0,NNW,10.4,-,N/A,,Partly Cloudy,330,2013-08-12 22:55:00
4:15 PM,75.2,57.2,53,30.04,10.0,NNW,8.1,-,N/A,,Scattered Clouds,330,2013-08-12 23:15:00
4:35 PM,75.2,55.4,50,30.03,10.0,NNW,10.4,-,N/A,,Partly Cloudy,330,2013-08-12 23:35:00
4:55 PM,75.2,55.4,50,30.03,10.0,NNW,10.4,-,N/A,,Clear,330,2013-08-12 23:55:00
5:15 PM,75.2,55.4,50,30.03,10.0,WNW,8.1,-,N/A,,Clear,290,2013-08-13 00:15:00
5:35 PM,75.2,55.4,50,30.03,10.0,NNW,5.8,-,N/A,,Clear,340,2013-08-13 00:35:00
5:55 PM,73.4,55.4,53,30.02,10.0,NNW,9.2,-,N/A,,Clear,330,2013-08-13 00:55:00
6:15 PM,73.4,55.4,53,30.02,10.0,NW,10.4,-,N/A,,Clear,320,2013-08-13 01:15:00
6:35 PM,71.6,55.4,57,30.03,10.0,NW,11.5,-,N/A,,Clear,310,2013-08-13 01:35:00
6:55 PM,69.8,55.4,60,30.03,10.0,NW,11.5,-,N/A,,Clear,310,2013-08-13 01:55:00
7:15 PM,68.0,53.6,60,30.03,10.0,NW,12.7,-,N/A,,Clear,310,2013-08-13 02:15:00
7:35 PM,66.2,53.6,64,30.04,10.0,NW,15.0,-,N/A,,Clear,310,2013-08-13 02:35:00
7:55 PM,64.4,53.6,68,30.05,10.0,NW,11.5,-,N/A,,Clear,310,2013-08-13 02:55:00
8:15 PM,64.4,53.6,68,30.05,10.0,NW,8.1,-,N/A,,Clear,320,2013-08-13 03:15:00
8:35 PM,62.6,53.6,72,30.06,10.0,NNW,5.8,-,N/A,,Clear,330,2013-08-13 03:35:00
8:55 PM,62.6,53.6,72,30.06,10.0,NW,8.1,-,N/A,,Clear,320,2013-08-13 03:55:00
10:15 PM,59.0,53.6,82,30.08,10.0,Calm,Calm,-,N/A,,Clear,0,2013-08-13 05:15:00
10:35 PM,59.0,53.6,82,30.08,10.0,Calm,Calm,-,N/A,,Clear,0,2013-08-13 05:35:00
10:55 PM,57.2,53.6,88,30.09,10.0,Calm,Calm,-,N/A,,Clear,0,2013-08-13 05:55:00
11:15 PM,57.2,51.8,82,30.09,10.0,Calm,Calm,-,N/A,,Partly Cloudy,0,2013-08-13 06:15:00
11:35 PM,57.2,51.8,82,30.09,10.0,Calm,Calm,-,N/A,,Partly Cloudy,0,2013-08-13 06:35:00
11:55 PM,57.2,51.8,82,30.09,10.0,Calm,Calm,-,N/A,,Partly Cloudy,0,2013-08-13 06:55:00